Location: Asbacherhof
(48.8543°N, 10.7903°E)
Time: 23:08:42
(UTC+00:00)

USA 305 - Pass Details

Date: 26 May 2022
Orbit: 549 x 553 km, 54.0° (Epoch: 14 June)

Event Time Altitude Azimuth Distance (km) Brightness Sun altitude
Exits shadow 01:02:59 23° 247° (WSW) 1,181 4.1 -15.9°
Maximum altitude 01:05:28 83° 333° (NNW) 560 2.8 -15.8°
Drops below altitude 10° 01:09:38 10° 62° (ENE) 1,828 6.3 -15.4°
Sets 01:11:52 0° 63° (ENE) 2,724 7.3 -15.3°
